Flag for American Samoa Weather past 2 weeks in Pago Pago, American Samoa

Now
80 °F

Sprinkles. Broken clouds.


Feels Like: 84 °F
Forecast: 77 / 86 °F
Wind: 7 mph from Northeast

Location: Pago Pago / Int. Airp.


UV Index: 7 (High)

Visibility: 10 mi


Pressure: 29.78 "Hg

Humidity: 84%

Dew point: 74 °F

Location of Pago PagoLocation

Historic Weather in Pago Pago

°F

Pago Pago temperature yesterday

Maximum temperature yesterday: 87 °F (at 2:50 PM)
Minimum temperature yesterday: 75 °F (at 5:55 AM)
Average temperature yesterday: 81 °F

Past Weeks' High & Low Weather Summary

 TemperatureHumidityPressure
High90 °F (Apr 3, 1:52 PM)95% (Apr 10, 1:50 AM)29.94 "Hg (Apr 10, 1:50 AM)
Low75 °F (Apr 16, 5:55 AM)62% (Apr 7, 11:54 AM)29.73 "Hg (Apr 15, 2:50 PM)
Average82 °F82%29.82 "Hg
* Reported Apr 2 2:54 PM — Apr 17 2:52 PM, Pago Pago, Weather by CustomWeather, © 2014

Note: Actual official high and low records may vary slightly from our data, if they occured in-between our weather recording intervals... More about our weather records

Advertising

Historic Weather Conditions — Data for Previous 24 hours

 ConditionsComfort  
Time TempWeatherWind HumidityBarometerVisibility
2:52 PM
Apr 17
80 °FSprinkles. Broken clouds.7 mph84%29.78 "Hg10 mi
1:51 PM84 °FScattered showers. Broken clouds.5 mph77%29.79 "Hg12 mi
12:51 PM86 °FBroken clouds.5 mph73%29.80 "Hg12 mi
11:50 AM86 °FPartly sunny.5 mph75%29.83 "Hg12 mi
10:56 AM84 °FBroken clouds.6 mph78%29.85 "Hg12 mi
9:53 AM84 °FBroken clouds.9 mph80%29.85 "Hg12 mi
8:57 AM83 °FBroken clouds.10 mph76%29.85 "Hg12 mi
7:52 AM81 °FBroken clouds.12 mph80%29.83 "Hg12 mi
6:52 AM81 °FCloudy.12 mph85%29.82 "Hg12 mi
5:51 AM78 °FPartly cloudy.3 mph91%29.80 "Hg11 mi
4:55 AM78 °FOvercast.No wind91%29.78 "Hg10 mi
2:57 AM78 °FPartly cloudy.5 mph91%29.79 "Hg10 mi
1:50 AM78 °FPartly cloudy.5 mph90%29.80 "Hg10 mi
12:55 AM80 °FLight rain. Partly cloudy.No wind84%29.80 "Hg10 mi
11:50 PM
Apr 16
79 °FPassing clouds.No wind88%29.82 "Hg10 mi
10:52 PM79 °FPassing clouds.5 mph89%29.83 "Hg10 mi
9:52 PM79 °FPassing clouds.No wind87%29.83 "Hg10 mi
8:52 PM80 °FPassing clouds.No wind86%29.82 "Hg10 mi
7:53 PM80 °FPassing clouds.2 mph86%29.80 "Hg10 mi
6:53 PM81 °FPassing clouds.2 mph83%29.78 "Hg10 mi
5:58 PM82 °FScattered clouds.No wind81%29.78 "Hg12 mi
Weather by CustomWeather, © 2014

See weather overview